Вернуться в каталог

GLOBALSTAR M051

АктивенСвязьLEO
NORAD 25853·PAYLOAD·🇺🇸 United States

Запущен Jul 10, 1999 с Cape Canaveral Space Force Station

Loading…

Ближайшие Пролёты (ближайшие 24 часа)

TLE

СвежийSource: Space-Track

Эпоха: Sep 14, 2026, 01:41 UTC

1 25853U 99037C   26257.07061229 -.00000095  00000-0 -56494-3 0  9997
2 25853  51.9823  25.9508 0001148  91.8216 268.2726 11.42205357184256

Отслеживайте GLOBALSTAR M051 в реальном времени с AllMySat

Download on the App Store